RoSS Sea — WDE3122 — position and weather

sailwx.info

Track history (hours):
 
Tides and Currents Weather Stations Pressure Air Temp Water Temp Dewpoint Dewpoint Depression Visibility Wind Speed Wind Dir Waves Ship Positions

RoSS Sea

Owner: Kirby Inland Marine, LP, Houston, TX. More information available from US FCC via Universal Licensing System and Coast Guard Vessel Documentation Center.

Last reported at 2014-Oct-25 23:30 UTC. Time now 2014-Oct-26 03:01 UTC.
Position N 40°32' W 074°15'.

Length 30 m; draft 5 m.

Type: Towing. MMSI: 367334360.

Date/timePositionNaut miles runAvg speedWind from/ knotsBaromVisibWave heightAir tempDewpointWater temp
2014-Oct-25 23:30N 40°32' W 074°15'0 0.0
2014-Oct-25 22:33N 40°32' W 074°15'0 0.0
2014-Oct-25 18:31N 40°32' W 074°15'0 0.0
2014-Oct-25 17:17N 40°32' W 074°15'0 0.0
2014-Oct-25 16:33N 40°32' W 074°15'0 0.0
2014-Oct-25 15:12N 40°32' W 074°15'0 0.0
2014-Oct-25 14:33N 40°32' W 074°15'0 0.2
2014-Oct-25 13:11N 40°32' W 074°15'3 4.3
2014-Oct-25 12:33N 40°34' W 074°13'5 5.0
2014-Oct-25 11:33N 40°39' W 074°10'0 0.3
2014-Oct-25 10:33N 40°38' W 074°10'0 0.0
2014-Oct-25 06:32N 40°38' W 074°10'0 0.0
2014-Oct-25 01:09N 40°38' W 074°10'0 0.0
2014-Oct-25 00:33N 40°38' W 074°10'0 0.0
2014-Oct-24 20:29N 40°38' W 074°10'4 2.2
2014-Oct-24 18:28N 40°35' W 074°13'4 1.5
2014-Oct-24 15:33N 40°38' W 074°10'0 0.2
2014-Oct-24 14:34N 40°38' W 074°10'0 0.0
2014-Oct-24 13:33N 40°38' W 074°10'0 0.0
2014-Oct-24 12:33N 40°38' W 074°10'0 0.0
2014-Oct-24 11:34N 40°38' W 074°10'0 0.0
2014-Oct-24 10:33N 40°38' W 074°10'0 0.0
2014-Oct-24 09:34N 40°38' W 074°10'0 0.0
2014-Oct-24 08:33N 40°38' W 074°10'0 0.0
2014-Oct-24 07:33N 40°38' W 074°10'0 0.0
2014-Oct-24 06:34N 40°38' W 074°10'0 0.0
2014-Oct-24 05:34N 40°38' W 074°10'0 0.0
2014-Oct-24 04:34N 40°38' W 074°10'0 0.0
2014-Oct-24 03:34N 40°38' W 074°10'0 0.0
2014-Oct-24 01:34N 40°39' W 074°10'0 0.1
2014-Oct-24 00:33N 40°39' W 074°10'0 0.1
2014-Oct-23 23:33N 40°38' W 074°10'0 0.0
2014-Oct-23 21:07N 40°38' W 074°10'0 0.0
2014-Oct-23 20:26N 40°38' W 074°10'0 0.1
2014-Oct-23 19:33N 40°39' W 074°10'0 0.0
2014-Oct-23 18:33N 40°39' W 074°10'0 0.0
2014-Oct-23 17:32N 40°39' W 074°10'4 4.5
2014-Oct-23 16:33N 40°39' W 074°04'4 4.0
2014-Oct-23 15:28N 40°38' W 074°10'0 0.0
2014-Oct-23 14:33N 40°38' W 074°10'0 0.0
2014-Oct-23 13:33N 40°38' W 074°10'0 0.0
2014-Oct-23 12:33N 40°38' W 074°10'0 0.0
2014-Oct-23 11:33N 40°38' W 074°10'0 0.0
2014-Oct-23 10:32N 40°38' W 074°10'0 0.0
2014-Oct-23 09:33N 40°38' W 074°10'0 0.0
2014-Oct-23 08:26N 40°38' W 074°10'0 0.0
2014-Oct-23 07:30N 40°38' W 074°10'0 0.0
2014-Oct-23 06:33N 40°38' W 074°10'0 0.0
2014-Oct-23 05:31N 40°38' W 074°10'0 0.0
2014-Oct-23 04:32N 40°38' W 074°10'0 0.0
2014-Oct-23 03:21N 40°38' W 074°10'3 4.0
2014-Oct-23 02:33N 40°39' W 074°06'3 3.2
2014-Oct-23 01:33N 40°39' W 074°10'0 0.0
2014-Oct-23 00:34N 40°38' W 074°10'0 0.0
2014-Oct-22 23:34N 40°38' W 074°10'0 0.0
2014-Oct-22 22:31N 40°39' W 074°10'3 2.6
2014-Oct-22 21:33N 40°39' W 074°07'3 2.5
2014-Oct-22 20:34N 40°38' W 074°10'0 0.0
2014-Oct-22 19:34N 40°38' W 074°10'0 0.0
2014-Oct-22 18:33N 40°38' W 074°10'0 0.0
2014-Oct-22 17:34N 40°38' W 074°10'0 0.0
2014-Oct-22 16:33N 40°38' W 074°10'0 0.0
2014-Oct-22 15:33N 40°38' W 074°10'0 0.0
2014-Oct-22 14:34N 40°38' W 074°10'0 0.0
2014-Oct-22 13:33N 40°38' W 074°10'0 0.0
2014-Oct-22 12:33N 40°38' W 074°10'0 0.0
2014-Oct-22 11:33N 40°38' W 074°10'0 0.0
2014-Oct-22 10:33N 40°38' W 074°10'0 0.0
2014-Oct-22 09:33N 40°38' W 074°10'0 0.0
2014-Oct-22 08:33N 40°38' W 074°10'0 0.0
2014-Oct-22 07:33N 40°38' W 074°10'0 0.0
2014-Oct-22 06:33N 40°38' W 074°10'0 0.1
2014-Oct-22 05:33N 40°39' W 074°10'0 0.0
2014-Oct-22 03:30N 40°39' W 074°10'0 0.0
2014-Oct-22 02:33N 40°39' W 074°10'0 0.0
2014-Oct-22 01:13N 40°39' W 074°10'5 8.2
2014-Oct-22 00:33N 40°40' W 074°03'10 9.4
2014-Oct-21 23:29N 40°49' W 073°58'0 0.0
2014-Oct-21 21:33N 40°49' W 073°58'1010.0
2014-Oct-21 20:33N 40°40' W 074°03'5 2.2
2014-Oct-21 18:08N 40°39' W 074°10'0 0.0
2014-Oct-21 17:23N 40°39' W 074°10'0 0.0
2014-Oct-21 16:33N 40°39' W 074°10'3 0.7
2014-Oct-21 12:12N 40°36' W 074°12'4 6.1
2014-Oct-21 11:33N 40°39' W 074°08'2 1.7
2014-Oct-21 10:33N 40°39' W 074°06'0 0.0
2014-Oct-21 09:33N 40°39' W 074°06'0 0.0
2014-Oct-21 08:30N 40°39' W 074°06'0 0.0
2014-Oct-21 07:29N 40°39' W 074°06'0 0.0
2014-Oct-21 06:32N 40°39' W 074°06'5 2.6
2014-Oct-21 04:33N 40°37' W 074°12'4 4.2
2014-Oct-21 03:32N 40°39' W 074°07'0 0.5
2014-Oct-21 02:32N 40°39' W 074°08'2 1.7
2014-Oct-21 01:26N 40°38' W 074°10'0 0.0
2014-Oct-21 00:33N 40°38' W 074°10'6 5.8
2014-Oct-20 23:33N 40°40' W 074°03'13 9.6
2014-Oct-20 22:12N 40°52' W 073°56'5 1.6
2014-Oct-20 19:14N 40°48' W 073°59'6 9.4
2014-Oct-20 18:33N 40°42' W 074°02'8 7.5
2014-Oct-20 17:33N 40°39' W 074°10'2 2.0
2014-Oct-20 16:33N 40°37' W 074°12'6 6.6
2014-Oct-20 15:33N 40°39' W 074°04'4 3.5
2014-Oct-20 14:33N 40°38' W 074°09'1 0.9
2014-Oct-20 13:26N 40°39' W 074°10'0 0.0
2014-Oct-20 12:10N 40°39' W 074°10'0 0.0
2014-Oct-20 11:16N 40°39' W 074°10'0 0.0
2014-Oct-20 10:32N 40°38' W 074°10'0 0.0
2014-Oct-20 09:32N 40°38' W 074°10'0 0.0
2014-Oct-20 08:32N 40°38' W 074°10'0 0.0
2014-Oct-20 07:33N 40°38' W 074°10'1 0.6
2014-Oct-20 06:33N 40°38' W 074°09'3 3.2
2014-Oct-20 05:33N 40°39' W 074°05'1 1.5
2014-Oct-20 04:33N 40°39' W 074°07'2 2.3
2014-Oct-20 03:33N 40°38' W 074°10'0 0.0
2014-Oct-20 02:33N 40°38' W 074°10'0 0.0
2014-Oct-20 01:33N 40°38' W 074°10'0 0.0
2014-Oct-20 00:33N 40°38' W 074°10'0 0.0
2014-Oct-19 23:33N 40°38' W 074°10'0 0.0
2014-Oct-19 22:33N 40°38' W 074°10'0 0.0
2014-Oct-19 21:33N 40°38' W 074°10'0 0.0
2014-Oct-19 20:33N 40°38' W 074°10'0 0.0
2014-Oct-19 19:31N 40°38' W 074°10'0 0.0
2014-Oct-19 18:33N 40°38' W 074°10'0 0.0
2014-Oct-19 17:33N 40°38' W 074°10'0 0.0
2014-Oct-19 16:33N 40°38' W 074°10'2 2.2
2014-Oct-19 15:32N 40°39' W 074°07'2 2.3
2014-Oct-19 14:33N 40°38' W 074°10'0 0.0
2014-Oct-19 13:33N 40°38' W 074°10'0 0.0
2014-Oct-19 12:33N 40°38' W 074°10'0 0.0
2014-Oct-19 11:33N 40°38' W 074°10'0 0.0
2014-Oct-19 10:33N 40°38' W 074°10'0 0.0
2014-Oct-19 09:32N 40°38' W 074°10'0 0.0
2014-Oct-19 08:33N 40°38' W 074°10'0 0.0
2014-Oct-19 07:33N 40°38' W 074°10'8 3.3
2014-Oct-19 05:06N 40°31' W 074°15'4 0.7
2014-Oct-19 00:10N 40°34' W 074°13'5 7.8
2014-Oct-18 23:30N 40°39' W 074°09'8 8.6
2014-Oct-18 22:33N 40°44' W 074°01'1 0.2
2014-Oct-18 18:33N 40°45' W 074°01'8 7.7
2014-Oct-18 17:33N 40°39' W 074°07'1 0.2
2014-Oct-18 12:25N 40°39' W 074°08'9 9.8
2014-Oct-18 11:33N 40°43' W 073°58'6 1.2
2014-Oct-18 06:11N 40°48' W 073°54'0 0.0
2014-Oct-18 05:08N 40°48' W 073°54'0 0.0
2014-Oct-18 04:33N 40°48' W 073°54'0 0.0
2014-Oct-18 03:31N 40°48' W 073°54'0 0.0
2014-Oct-18 01:32N 40°48' W 073°54'4 4.6
2014-Oct-18 00:33N 40°45' W 073°58'1 1.5
2014-Oct-17 23:33N 40°46' W 073°57'3 2.4
2014-Oct-17 22:24N 40°48' W 073°54'4 4.4
2014-Oct-17 21:33N 40°45' W 073°58'7 7.0
2014-Oct-17 20:33N 40°40' W 074°03'5 5.2
2014-Oct-17 19:33N 40°38' W 074°10'0 0.0
2014-Oct-17 18:33N 40°38' W 074°10'0 0.0
2014-Oct-17 17:33N 40°38' W 074°10'0 0.0
2014-Oct-17 16:33N 40°38' W 074°10'0 0.0
2014-Oct-17 15:33N 40°38' W 074°10'0 0.0
2014-Oct-17 14:33N 40°38' W 074°10'0 0.0
2014-Oct-17 13:33N 40°38' W 074°10'0 0.0
2014-Oct-17 12:33N 40°38' W 074°10'0 0.0
2014-Oct-17 11:33N 40°38' W 074°10'0 0.0
2014-Oct-17 10:33N 40°38' W 074°10'0 0.0
2014-Oct-17 09:33N 40°38' W 074°10'0 0.0
2014-Oct-17 08:33N 40°38' W 074°10'0 0.0
2014-Oct-17 07:33N 40°38' W 074°10'0 0.0
2014-Oct-17 06:33N 40°38' W 074°10'0 0.0
2014-Oct-17 05:33N 40°38' W 074°10'0 0.0
2014-Oct-17 04:33N 40°38' W 074°10'3 2.5
2014-Oct-17 03:33N 40°39' W 074°07'1 0.7
2014-Oct-17 02:33N 40°39' W 074°06'0 0.0
2014-Oct-17 01:33N 40°39' W 074°06'0 0.2
2014-Oct-17 00:33N 40°39' W 074°06'8 3.8
2014-Oct-16 22:30N 40°33' W 074°14'4 3.3
2014-Oct-16 21:14N 40°37' W 074°12'2 3.0
2014-Oct-16 20:33N 40°38' W 074°10'0 0.0
2014-Oct-16 19:33N 40°38' W 074°10'0 0.0
2014-Oct-16 18:33N 40°38' W 074°10'0 0.0
2014-Oct-16 17:33N 40°38' W 074°10'0 0.0
2014-Oct-16 16:33N 40°38' W 074°10'1 0.6
2014-Oct-16 15:33N 40°39' W 074°09'1 0.6
2014-Oct-16 14:33N 40°38' W 074°10'0 0.0
2014-Oct-16 13:33N 40°38' W 074°10'0 0.0
2014-Oct-16 12:33N 40°38' W 074°10'0 0.0
2014-Oct-16 11:33N 40°38' W 074°10'0 0.0
2014-Oct-16 10:32N 40°38' W 074°10'0 0.0
2014-Oct-16 09:33N 40°38' W 074°10'0 0.0
2014-Oct-16 08:22N 40°38' W 074°10'0 0.0
2014-Oct-16 06:29N 40°38' W 074°10'0 0.0
2014-Oct-16 05:31N 40°38' W 074°10'5 5.2
2014-Oct-16 04:33N 40°40' W 074°03'1 0.8
2014-Oct-16 03:25N 40°40' W 074°02'4 4.5
2014-Oct-16 02:29N 40°39' W 074°08'  
Track history (hours):
 
Tides and Currents Weather Stations Pressure Air Temp Water Temp Dewpoint Dewpoint Depression Visibility Wind Speed Wind Dir Waves Ship Positions

RoSS Sea

Owner: Kirby Inland Marine, LP, Houston, TX. More information available from US FCC via Universal Licensing System and Coast Guard Vessel Documentation Center.

Last reported at 2014-Oct-25 23:30 UTC. Time now 2014-Oct-26 03:01 UTC.
Position N 40°32' W 074°15'.

Length 30 m; draft 5 m.

Type: Towing. MMSI: 367334360.

Date/timePositionNaut miles runAvg speedWind from/ knotsBaromVisibWave heightAir tempDewpointWater temp
2014-Oct-25 23:30N 40°32' W 074°15'0 0.0
2014-Oct-25 22:33N 40°32' W 074°15'0 0.0
2014-Oct-25 18:31N 40°32' W 074°15'0 0.0
2014-Oct-25 17:17N 40°32' W 074°15'0 0.0
2014-Oct-25 16:33N 40°32' W 074°15'0 0.0
2014-Oct-25 15:12N 40°32' W 074°15'0 0.0
2014-Oct-25 14:33N 40°32' W 074°15'0 0.2
2014-Oct-25 13:11N 40°32' W 074°15'3 4.3
2014-Oct-25 12:33N 40°34' W 074°13'5 5.0
2014-Oct-25 11:33N 40°39' W 074°10'0 0.3
2014-Oct-25 10:33N 40°38' W 074°10'0 0.0
2014-Oct-25 06:32N 40°38' W 074°10'0 0.0
2014-Oct-25 01:09N 40°38' W 074°10'0 0.0
2014-Oct-25 00:33N 40°38' W 074°10'0 0.0
2014-Oct-24 20:29N 40°38' W 074°10'4 2.2
2014-Oct-24 18:28N 40°35' W 074°13'4 1.5
2014-Oct-24 15:33N 40°38' W 074°10'0 0.2
2014-Oct-24 14:34N 40°38' W 074°10'0 0.0
2014-Oct-24 13:33N 40°38' W 074°10'0 0.0
2014-Oct-24 12:33N 40°38' W 074°10'0 0.0
2014-Oct-24 11:34N 40°38' W 074°10'0 0.0
2014-Oct-24 10:33N 40°38' W 074°10'0 0.0
2014-Oct-24 09:34N 40°38' W 074°10'0 0.0
2014-Oct-24 08:33N 40°38' W 074°10'0 0.0
2014-Oct-24 07:33N 40°38' W 074°10'0 0.0
2014-Oct-24 06:34N 40°38' W 074°10'0 0.0
2014-Oct-24 05:34N 40°38' W 074°10'0 0.0
2014-Oct-24 04:34N 40°38' W 074°10'0 0.0
2014-Oct-24 03:34N 40°38' W 074°10'0 0.0
2014-Oct-24 01:34N 40°39' W 074°10'0 0.1
2014-Oct-24 00:33N 40°39' W 074°10'0 0.1
2014-Oct-23 23:33N 40°38' W 074°10'0 0.0
2014-Oct-23 21:07N 40°38' W 074°10'0 0.0
2014-Oct-23 20:26N 40°38' W 074°10'0 0.1
2014-Oct-23 19:33N 40°39' W 074°10'0 0.0
2014-Oct-23 18:33N 40°39' W 074°10'0 0.0
2014-Oct-23 17:32N 40°39' W 074°10'4 4.5
2014-Oct-23 16:33N 40°39' W 074°04'4 4.0
2014-Oct-23 15:28N 40°38' W 074°10'0 0.0
2014-Oct-23 14:33N 40°38' W 074°10'0 0.0
2014-Oct-23 13:33N 40°38' W 074°10'0 0.0
2014-Oct-23 12:33N 40°38' W 074°10'0 0.0
2014-Oct-23 11:33N 40°38' W 074°10'0 0.0
2014-Oct-23 10:32N 40°38' W 074°10'0 0.0
2014-Oct-23 09:33N 40°38' W 074°10'0 0.0
2014-Oct-23 08:26N 40°38' W 074°10'0 0.0
2014-Oct-23 07:30N 40°38' W 074°10'0 0.0
2014-Oct-23 06:33N 40°38' W 074°10'0 0.0
2014-Oct-23 05:31N 40°38' W 074°10'0 0.0
2014-Oct-23 04:32N 40°38' W 074°10'0 0.0
2014-Oct-23 03:21N 40°38' W 074°10'3 4.0
2014-Oct-23 02:33N 40°39' W 074°06'3 3.2
2014-Oct-23 01:33N 40°39' W 074°10'0 0.0
2014-Oct-23 00:34N 40°38' W 074°10'0 0.0
2014-Oct-22 23:34N 40°38' W 074°10'0 0.0
2014-Oct-22 22:31N 40°39' W 074°10'3 2.6
2014-Oct-22 21:33N 40°39' W 074°07'3 2.5
2014-Oct-22 20:34N 40°38' W 074°10'0 0.0
2014-Oct-22 19:34N 40°38' W 074°10'0 0.0
2014-Oct-22 18:33N 40°38' W 074°10'0 0.0
2014-Oct-22 17:34N 40°38' W 074°10'0 0.0
2014-Oct-22 16:33N 40°38' W 074°10'0 0.0
2014-Oct-22 15:33N 40°38' W 074°10'0 0.0
2014-Oct-22 14:34N 40°38' W 074°10'0 0.0
2014-Oct-22 13:33N 40°38' W 074°10'0 0.0
2014-Oct-22 12:33N 40°38' W 074°10'0 0.0
2014-Oct-22 11:33N 40°38' W 074°10'0 0.0
2014-Oct-22 10:33N 40°38' W 074°10'0 0.0
2014-Oct-22 09:33N 40°38' W 074°10'0 0.0
2014-Oct-22 08:33N 40°38' W 074°10'0 0.0
2014-Oct-22 07:33N 40°38' W 074°10'0 0.0
2014-Oct-22 06:33N 40°38' W 074°10'0 0.1
2014-Oct-22 05:33N 40°39' W 074°10'0 0.0
2014-Oct-22 03:30N 40°39' W 074°10'0 0.0
2014-Oct-22 02:33N 40°39' W 074°10'0 0.0
2014-Oct-22 01:13N 40°39' W 074°10'5 8.2
2014-Oct-22 00:33N 40°40' W 074°03'10 9.4
2014-Oct-21 23:29N 40°49' W 073°58'0 0.0
2014-Oct-21 21:33N 40°49' W 073°58'1010.0
2014-Oct-21 20:33N 40°40' W 074°03'5 2.2
2014-Oct-21 18:08N 40°39' W 074°10'0 0.0
2014-Oct-21 17:23N 40°39' W 074°10'0 0.0
2014-Oct-21 16:33N 40°39' W 074°10'3 0.7
2014-Oct-21 12:12N 40°36' W 074°12'4 6.1
2014-Oct-21 11:33N 40°39' W 074°08'2 1.7
2014-Oct-21 10:33N 40°39' W 074°06'0 0.0
2014-Oct-21 09:33N 40°39' W 074°06'0 0.0
2014-Oct-21 08:30N 40°39' W 074°06'0 0.0
2014-Oct-21 07:29N 40°39' W 074°06'0 0.0
2014-Oct-21 06:32N 40°39' W 074°06'5 2.6
2014-Oct-21 04:33N 40°37' W 074°12'4 4.2
2014-Oct-21 03:32N 40°39' W 074°07'0 0.5
2014-Oct-21 02:32N 40°39' W 074°08'2 1.7
2014-Oct-21 01:26N 40°38' W 074°10'0 0.0
2014-Oct-21 00:33N 40°38' W 074°10'6 5.8
2014-Oct-20 23:33N 40°40' W 074°03'13 9.6
2014-Oct-20 22:12N 40°52' W 073°56'5 1.6
2014-Oct-20 19:14N 40°48' W 073°59'6 9.4
2014-Oct-20 18:33N 40°42' W 074°02'8 7.5
2014-Oct-20 17:33N 40°39' W 074°10'2 2.0
2014-Oct-20 16:33N 40°37' W 074°12'6 6.6
2014-Oct-20 15:33N 40°39' W 074°04'4 3.5
2014-Oct-20 14:33N 40°38' W 074°09'1 0.9
2014-Oct-20 13:26N 40°39' W 074°10'0 0.0
2014-Oct-20 12:10N 40°39' W 074°10'0 0.0
2014-Oct-20 11:16N 40°39' W 074°10'0 0.0
2014-Oct-20 10:32N 40°38' W 074°10'0 0.0
2014-Oct-20 09:32N 40°38' W 074°10'0 0.0
2014-Oct-20 08:32N 40°38' W 074°10'0 0.0
2014-Oct-20 07:33N 40°38' W 074°10'1 0.6
2014-Oct-20 06:33N 40°38' W 074°09'3 3.2
2014-Oct-20 05:33N 40°39' W 074°05'1 1.5
2014-Oct-20 04:33N 40°39' W 074°07'2 2.3
2014-Oct-20 03:33N 40°38' W 074°10'0 0.0
2014-Oct-20 02:33N 40°38' W 074°10'0 0.0
2014-Oct-20 01:33N 40°38' W 074°10'0 0.0
2014-Oct-20 00:33N 40°38' W 074°10'0 0.0
2014-Oct-19 23:33N 40°38' W 074°10'0 0.0
2014-Oct-19 22:33N 40°38' W 074°10'0 0.0
2014-Oct-19 21:33N 40°38' W 074°10'0 0.0
2014-Oct-19 20:33N 40°38' W 074°10'0 0.0
2014-Oct-19 19:31N 40°38' W 074°10'0 0.0
2014-Oct-19 18:33N 40°38' W 074°10'0 0.0
2014-Oct-19 17:33N 40°38' W 074°10'0 0.0
2014-Oct-19 16:33N 40°38' W 074°10'2 2.2
2014-Oct-19 15:32N 40°39' W 074°07'2 2.3
2014-Oct-19 14:33N 40°38' W 074°10'0 0.0
2014-Oct-19 13:33N 40°38' W 074°10'0 0.0
2014-Oct-19 12:33N 40°38' W 074°10'0 0.0
2014-Oct-19 11:33N 40°38' W 074°10'0 0.0
2014-Oct-19 10:33N 40°38' W 074°10'0 0.0
2014-Oct-19 09:32N 40°38' W 074°10'0 0.0
2014-Oct-19 08:33N 40°38' W 074°10'0 0.0
2014-Oct-19 07:33N 40°38' W 074°10'8 3.3
2014-Oct-19 05:06N 40°31' W 074°15'4 0.7
2014-Oct-19 00:10N 40°34' W 074°13'5 7.8
2014-Oct-18 23:30N 40°39' W 074°09'8 8.6
2014-Oct-18 22:33N 40°44' W 074°01'1 0.2
2014-Oct-18 18:33N 40°45' W 074°01'8 7.7
2014-Oct-18 17:33N 40°39' W 074°07'1 0.2
2014-Oct-18 12:25N 40°39' W 074°08'9 9.8
2014-Oct-18 11:33N 40°43' W 073°58'6 1.2
2014-Oct-18 06:11N 40°48' W 073°54'0 0.0
2014-Oct-18 05:08N 40°48' W 073°54'0 0.0
2014-Oct-18 04:33N 40°48' W 073°54'0 0.0
2014-Oct-18 03:31N 40°48' W 073°54'0 0.0
2014-Oct-18 01:32N 40°48' W 073°54'4 4.6
2014-Oct-18 00:33N 40°45' W 073°58'1 1.5
2014-Oct-17 23:33N 40°46' W 073°57'3 2.4
2014-Oct-17 22:24N 40°48' W 073°54'4 4.4
2014-Oct-17 21:33N 40°45' W 073°58'7 7.0
2014-Oct-17 20:33N 40°40' W 074°03'5 5.2
2014-Oct-17 19:33N 40°38' W 074°10'0 0.0
2014-Oct-17 18:33N 40°38' W 074°10'0 0.0
2014-Oct-17 17:33N 40°38' W 074°10'0 0.0
2014-Oct-17 16:33N 40°38' W 074°10'0 0.0
2014-Oct-17 15:33N 40°38' W 074°10'0 0.0
2014-Oct-17 14:33N 40°38' W 074°10'0 0.0
2014-Oct-17 13:33N 40°38' W 074°10'0 0.0
2014-Oct-17 12:33N 40°38' W 074°10'0 0.0
2014-Oct-17 11:33N 40°38' W 074°10'0 0.0
2014-Oct-17 10:33N 40°38' W 074°10'0 0.0
2014-Oct-17 09:33N 40°38' W 074°10'0 0.0
2014-Oct-17 08:33N 40°38' W 074°10'0 0.0
2014-Oct-17 07:33N 40°38' W 074°10'0 0.0
2014-Oct-17 06:33N 40°38' W 074°10'0 0.0
2014-Oct-17 05:33N 40°38' W 074°10'0 0.0
2014-Oct-17 04:33N 40°38' W 074°10'3 2.5
2014-Oct-17 03:33N 40°39' W 074°07'1 0.7
2014-Oct-17 02:33N 40°39' W 074°06'0 0.0
2014-Oct-17 01:33N 40°39' W 074°06'0 0.2
2014-Oct-17 00:33N 40°39' W 074°06'8 3.8
2014-Oct-16 22:30N 40°33' W 074°14'4 3.3
2014-Oct-16 21:14N 40°37' W 074°12'2 3.0
2014-Oct-16 20:33N 40°38' W 074°10'0 0.0
2014-Oct-16 19:33N 40°38' W 074°10'0 0.0
2014-Oct-16 18:33N 40°38' W 074°10'0 0.0
2014-Oct-16 17:33N 40°38' W 074°10'0 0.0
2014-Oct-16 16:33N 40°38' W 074°10'1 0.6
2014-Oct-16 15:33N 40°39' W 074°09'1 0.6
2014-Oct-16 14:33N 40°38' W 074°10'0 0.0
2014-Oct-16 13:33N 40°38' W 074°10'0 0.0
2014-Oct-16 12:33N 40°38' W 074°10'0 0.0
2014-Oct-16 11:33N 40°38' W 074°10'0 0.0
2014-Oct-16 10:32N 40°38' W 074°10'0 0.0
2014-Oct-16 09:33N 40°38' W 074°10'0 0.0
2014-Oct-16 08:22N 40°38' W 074°10'0 0.0
2014-Oct-16 06:29N 40°38' W 074°10'0 0.0
2014-Oct-16 05:31N 40°38' W 074°10'5 5.2
2014-Oct-16 04:33N 40°40' W 074°03'1 0.8
2014-Oct-16 03:25N 40°40' W 074°02'4 4.5
2014-Oct-16 02:29N 40°39' W 074°08'  

Dump ship's entire track history